This demonstration page uses our WeatherBlox Daily Observations layout. Learn more.

Left ArrowRight Arrow

39.08367, -84.50855

Hourly Observations for March 30, 2020

Temp ( °F °C ) Dew Point ( °F °C ) Humidity (%) Winds ( mph kmh ) Pressure ( in mb ) Visibility ( mi km ) Precip ( " mm )
12:53 am 00:53 Clear 53 11.7 38 3.3 57 57 SSW 9 15 30.02 1017 10 16 N/A
1:53 am 01:53 Clear 53 11.7 39 3.9 59 59 SW 9 15 30.01 1016 10 16 N/A
2:53 am 02:53 Clear 53 11.7 37 2.8 55 55 WSW 9 15 30.01 1016 10 16 N/A
3:53 am 03:53 Clear 51 10.6 34 1.1 52 52 WSW 8 13 30.02 1017 10 16 N/A
4:53 am 04:53 Clear 52 11.1 32 undefined 47 47 W 13 20 30.03 1017 10 16 N/A
5:53 am 05:53 Clear 53 11.7 33 0.6 47 47 W 25 41 30.06 1018 10 16 N/A
6:53 am 06:53 Clear 51 10.6 30 -1.1 44 44 W 18 30 30.08 1019 10 16 N/A
7:53 am 07:53 Sunny 49 9.4 31 -0.6 50 50 W 14 22 30.10 1019 10 16 N/A
8:53 am 08:53 Sunny 51 10.6 32 undefined 48 48 W 14 22 30.12 1020 10 16 N/A
9:53 am 09:53 Sunny 52 11.1 31 -0.6 45 45 W 21 33 30.13 1020 10 16 N/A
10:53 am 10:53 Sunny 54 12.2 31 -0.6 42 42 WNW 18 30 30.14 1021 10 16 N/A
11:53 am 11:53 Sunny 57 13.9 33 0.6 41 41 W 18 30 30.13 1020 10 16 N/A
12:53 pm 12:53 Sunny 59 15 32 undefined 36 36 W 18 30 30.13 1020 10 16 N/A
1:53 pm 13:53 Sunny 60 15.6 33 0.6 36 36 W 20 31 30.11 1020 10 16 N/A
2:53 pm 14:53 Sunny 60 15.6 34 1.1 38 38 W 17 28 30.11 1020 10 16 N/A
3:53 pm 15:53 Sunny 61 16.1 33 0.6 35 35 W 22 35 30.09 1019 10 16 N/A
4:53 pm 16:53 Mostly Sunny 60 15.6 32 undefined 35 35 W 16 26 30.08 1019 10 16 N/A
5:53 pm 17:53 Mostly Sunny 61 16.1 34 1.1 36 36 W 12 19 30.07 1018 10 16 N/A
6:53 pm 18:53 Mostly Sunny 58 14.4 33 0.6 39 39 W 15 24 30.08 1019 10 16 N/A
7:53 pm 19:53 Mostly Sunny 55 12.8 35 1.7 47 47 NNW 10 17 30.08 1019 10 16 N/A
8:53 pm 20:53 Mostly Clear 51 10.6 37 2.8 59 59 NNE 7 11 30.11 1020 10 16 N/A
9:53 pm 21:53 Clear 47 8.3 37 2.8 69 69 NE 7 11 30.11 1020 10 16 N/A
10:53 pm 22:53 Clear 47 8.3 37 2.8 69 69 NNE 5 7 30.09 1019 10 16 N/A
11:53 pm 23:53 Clear 44 6.7 38 3.3 79 79 NNE 3 6 30.09 1019 10 16 N/A

Powered by AerisWeather